TimeEDT,TemperatureF,Dew PointF,Humidity,Sea Level PressureIn,VisibilityMPH,Wind Direction,Wind SpeedMPH,Gust SpeedMPH,PrecipitationIn,Events,Conditions,WindDirDegrees,DateUTC
12:56 AM,48.0,46.0,93,30.08,8.0,South,6.9,-,N/A,,Overcast,170,2013-03-12 04:56:00
1:56 AM,48.0,45.0,89,30.04,9.0,SSE,8.1,-,N/A,,Partly Cloudy,160,2013-03-12 05:56:00
2:56 AM,50.0,46.0,86,30.02,10.0,South,6.9,-,N/A,,Scattered Clouds,170,2013-03-12 06:56:00
3:56 AM,50.0,45.0,83,30.00,10.0,South,10.4,-,N/A,,Mostly Cloudy,170,2013-03-12 07:56:00
4:56 AM,51.1,44.1,77,30.00,10.0,South,10.4,19.6,0.00,Rain,Light Rain,180,2013-03-12 08:56:00
5:24 AM,50.0,44.6,82,29.98,7.0,South,8.1,-,0.01,Rain,Light Rain,180,2013-03-12 09:24:00
5:35 AM,48.2,44.6,87,29.98,6.0,SSE,6.9,-,0.02,Rain,Light Rain,160,2013-03-12 09:35:00
5:56 AM,48.9,45.0,86,29.98,7.0,SE,8.1,-,0.03,Rain,Light Rain,140,2013-03-12 09:56:00
6:56 AM,48.9,46.0,90,29.97,6.0,SSE,6.9,-,0.02,Rain,Light Rain,160,2013-03-12 10:56:00
7:56 AM,48.2,46.4,93,29.95,4.0,SSE,6.9,-,N/A,Rain,Light Rain,160,2013-03-12 11:56:00
8:56 AM,50.0,46.9,89,29.96,4.0,South,6.9,-,0.04,Rain,Light Rain,170,2013-03-12 12:56:00
9:56 AM,50.0,48.0,93,29.94,4.0,SSE,8.1,-,0.02,Rain,Light Rain,150,2013-03-12 13:56:00
10:56 AM,51.1,48.9,92,29.91,4.0,SSE,10.4,-,0.04,Rain,Light Rain,150,2013-03-12 14:56:00
11:21 AM,51.8,48.2,88,29.89,2.5,SSE,10.4,-,0.04,Rain,Rain,150,2013-03-12 15:21:00
11:56 AM,51.1,48.9,92,29.87,2.0,SSE,12.7,19.6,0.11,Rain,Rain,160,2013-03-12 15:56:00
12:56 PM,52.0,50.0,93,29.84,1.5,SSE,15.0,-,0.13,Rain,Rain,150,2013-03-12 16:56:00
1:56 PM,52.0,50.0,93,29.80,2.5,SSE,16.1,26.5,0.13,Rain,Rain,160,2013-03-12 17:56:00
2:56 PM,52.0,50.0,93,29.74,2.5,SSE,18.4,27.6,0.18,Rain,Rain,160,2013-03-12 18:56:00
3:56 PM,53.1,51.1,93,29.70,2.5,SSE,15.0,26.5,0.18,Rain,Heavy Rain,160,2013-03-12 19:56:00
4:03 PM,53.6,51.8,94,29.69,1.0,South,17.3,27.6,0.04,Rain,Heavy Rain,170,2013-03-12 20:03:00
4:56 PM,54.0,52.0,93,29.68,4.0,South,18.4,32.2,0.25,Rain,Light Rain,180,2013-03-12 20:56:00
5:25 PM,51.8,50.0,94,29.67,1.0,South,16.1,29.9,0.00,,Overcast,180,2013-03-12 21:25:00
5:56 PM,51.1,50.0,96,29.69,1.0,South,10.4,19.6,0.00,Rain,Light Rain,190,2013-03-12 21:56:00
6:56 PM,51.1,50.0,96,29.72,0.8,SSW,3.5,-,0.01,,Overcast,210,2013-03-12 22:56:00
7:19 PM,51.8,48.2,88,29.73,5.0,WNW,12.7,21.9,0.02,,Overcast,290,2013-03-12 23:19:00
7:56 PM,50.0,42.1,74,29.76,5.0,WNW,12.7,23.0,0.02,,Haze,290,2013-03-12 23:56:00
8:56 PM,46.0,37.9,73,29.79,10.0,WNW,15.0,23.0,N/A,,Mostly Cloudy,300,2013-03-13 00:56:00
9:56 PM,44.1,37.0,76,29.80,10.0,WNW,18.4,26.5,N/A,,Overcast,300,2013-03-13 01:56:00
10:56 PM,43.0,35.1,74,29.81,10.0,NW,11.5,-,N/A,,Clear,320,2013-03-13 02:56:00
11:56 PM,42.1,35.1,76,29.80,10.0,NW,10.4,-,N/A,,Clear,320,2013-03-13 03:56:00